Regional Weather Roundup
Issued by NWS

Home | Current Version | Previous Version | Text Only | Print | Product List | Glossary On
Versions: 1 2 3 4 5 6 7 8 9 10 11 12 13 14 15 16 17 18 19 20 21 22 23 24 25 26 27 28 29 30 31 32 33 34 35 36 37 38 39 40 41 42 43 44 45 46 47 48 49 50
000
ASCA42 TJSJ 290110
RWRPR
PUERTO RICO/U.S. VIRGIN ISLANDS HOURLY WEATHER ROUNDUP
NATIONAL WEATHER SERVICE SAN JUAN PR
900 PM AST TUE JUL 28 2015

PRZ001-004-290200-
PUERTO RICO

CITY           SKY/WX    TMP DP  RH WIND       PRES   REMARKS
SAN JUAN LMM   PTCLDY    82  75  78 E10       30.04R
AGUADILLA      CLEAR     81  73  78 E9        30.05
$$

PRZ006-007-290200-
U.S. VIRGIN ISLANDS

CITY           SKY/WX    TMP DP  RH WIND       PRES   REMARKS
CHARLOTTE AMA  PTCLDY    84  73  70 E12       30.03R HX  91
CHRISTIANSTED  PTCLDY    82  72  69 NE10      30.03R
$$

HOURLY WEATHER ROUNDUP FOR THE NEWS MEDIA

CITY           SKY/WX    TMP DP  RH WIND       PRES   REMARKS
ORLANDO        MOCLDY    77  77 100 S3        29.96R
NEW YORK       PTCLDY    80  71  74 S9        29.97R
NEWARK         PTCLDY    85  71  63 S7        29.95R HX  90
CHICAGO        MOCLDY    85  69  58 SW5       29.91R
HARTFORD       PTCLDY    72  70  93 CALM      29.96R
BOSTON         PTCLDY    74  69  85 SE5       29.96R
DALLAS         CLEAR     96  62  32 S14       29.89S HX  97
PHILADELPHIA   PTCLDY    84  71  65 S10       29.97R
LOS ANGELES    MOSUNNY   73  64  73 W14       29.85S
WASHINGTON DC  CLOUDY    73  71  93 CALM      30.01R



USA.gov is the U.S. government's official web portal to all federal, state and local government web resources and services.